QPF
0.13 0.18 0.15 0.06 0.02 0.00 0.00 0.00 0.00 0.00 0.00 0.00 0.00 0.00 0.00 0.00 0.00 0.00 0.00 0.00 0.00 0.00 0.00 0.00 0.00 0.00 0.00 0.00 0.00 0.00 0.00 0.00
0.11 0.10 0.11 0.09 0.01 0.00 0.00 0.00 0.00 0.00 0.00 0.00 0.00 0.00 0.00 0.00 0.00 0.00 0.00 0.00 0.00 0.00 0.00 0.00 0.00 0.00 0.00 0.00 0.00 0.00 0.00 0.00
0.10 0.15 0.05 0.05 0.03 0.00 0.00 0.00 0.00 0.00 0.00 0.00 0.00 0.00 0.00 0.00 0.00 0.00 0.00 0.00 0.00 0.00 0.00 0.00 0.00 0.00 0.00 0.00 0.00 0.00 0.00 0.00
0.11 0.13 0.08 0.05 0.02 0.02 0.02 0.01 0.00 0.00 0.00 0.00 0.00 0.00 0.00 0.00 0.00 0.00 0.00 0.00 0.00 0.00 0.00 0.00 0.00 0.00 0.00 0.00 0.00 0.00 0.00 0.00
0.07 0.10 0.11 0.05 0.02 0.01 0.02 0.03 0.00 0.00 0.00 0.00 0.00 0.00 0.00 0.00 0.00 0.00 0.00 0.00 0.00 0.00 0.00 0.00 0.00 0.00 0.00 0.00 0.00 0.00 0.00 0.00
0.02 0.03 0.02 0.02 0.01 0.00 0.02 0.04 0.02 0.01 0.00 0.00 0.00 0.00 0.00 0.00 0.00 0.00 0.00 0.00 0.00 0.00 0.00 0.00 0.00 0.00 0.00 0.00 0.00 0.00 0.00 0.00
0.01 0.00 0.00 0.00 0.00 0.00 0.01 0.05 0.05 0.01 0.00 0.00 0.00 0.00 0.00 0.00 0.00 0.00 0.00 0.00 0.00 0.00 0.00 0.00 0.00 0.00 0.00 0.00 0.00 0.00 0.00 0.00
0.00 0.00 0.00 0.00 0.00 0.00 0.00 0.00 0.01 0.01 0.00 0.00 0.00 0.00 0.00 0.00 0.00 0.00 0.00 0.00 0.00 0.00 0.00 0.00 0.00 0.00 0.00 0.00 0.00 0.00 0.00 0.00
0.00 0.00 0.01 0.00 0.00 0.00 0.00 0.00 0.00 0.00 0.00 0.00 0.00 0.00 0.00 0.00 0.00 0.00 0.00 0.00 0.00 0.00 0.00 0.00 0.00 0.00 0.00 0.00 0.00 0.00 0.00 0.00
0.00 0.00 0.00 0.00 0.00 0.00 0.00 0.00 0.00 0.00 0.00 0.00 0.00 0.00 0.00 0.00 0.01 0.00 0.00 0.00 0.00 0.00 0.00 0.00 0.00 0.00 0.00 0.00 0.00 0.00 0.00 0.00
0.00 0.00 0.00 0.00 0.01 0.02 0.00 0.00 0.00 0.00 0.00 0.02 0.03 0.01 0.03 0.01 0.01 0.00 0.00 0.00 0.00 0.00 0.00 0.00 0.00 0.00 0.00 0.00 0.00 0.00 0.00 0.00
0.00 0.00 0.00 0.01 0.01 0.01 0.00 0.00 0.00 0.00 0.02 0.08 0.05 0.00 0.00 0.00 0.03 0.00 0.00 0.00 0.00 0.00 0.00 0.00 0.00 0.00 0.00 0.00 0.00 0.00 0.00 0.00
0.00 0.00 0.01 0.01 0.01 0.00 0.00 0.00 0.00 0.00 0.03 0.06 0.09 0.02 0.00 0.00 0.01 0.00 0.00 0.00 0.00 0.00 0.00 0.00 0.00 0.00 0.00 0.00 0.00 0.00 0.00 0.00
0.00 0.00 0.00 0.00 0.00 0.00 0.00 0.00 0.00 0.00 0.01 0.02 0.04 0.06 0.02 0.00 0.02 0.02 0.00 0.00 0.00 0.00 0.00 0.00 0.00 0.00 0.00 0.00 0.00 0.00 0.00 0.00
0.00 0.00 0.00 0.01 0.00 0.00 0.00 0.00 0.00 0.00 0.01 0.09 0.06 0.07 0.04 0.01 0.00 0.00 0.00 0.00 0.00 0.00 0.00 0.00 0.00 0.00 0.00 0.00 0.00 0.00 0.00 0.00
0.00 0.00 0.00 0.00 0.00 0.00 0.00 0.00 0.00 0.00 0.01 0.01 0.03 0.01 0.02 0.02 0.00 0.00 0.00 0.00 0.00 0.00 0.00 0.00 0.00 0.00 0.00 0.00 0.00 0.00 0.00 0.00
0.00 0.00 0.00 0.00 0.00 0.02 0.01 0.00 0.00 0.04 0.04 0.01 0.01 0.00 0.02 0.03 0.00 0.01 0.02 0.01 0.00 0.00 0.00 0.00 0.00 0.00 0.00 0.00 0.00 0.00 0.00 0.00
0.00 0.00 0.00 0.00 0.00 0.03 0.02 0.02 0.00 0.07 0.15 0.05 0.03 0.02 0.01 0.01 0.01 0.02 0.02 0.01 0.01 0.00 0.00 0.00 0.00 0.00 0.00 0.00 0.00 0.00 0.00 0.00
0.00 0.00 0.00 0.00 0.01 0.01 0.01 0.02 0.04 0.03 0.05 0.07 0.07 0.03 0.04 0.05 0.03 0.02 0.02 0.02 0.01 0.00 0.00 0.00 0.00 0.00 0.00 0.00 0.00 0.00 0.00 0.00
0.00 0.00 0.00 0.00 0.00 0.00 0.01 0.00 0.00 0.00 0.00 0.04 0.04 0.04 0.05 0.06 0.03 0.01 0.01 0.01 0.00 0.00 0.00 0.00 0.00 0.00 0.00 0.00 0.00 0.00 0.00 0.00
MSLP
1012.83 1012.99 1013.75 1014.16 1014.57 1015.80 1016.18 1016.34 1016.76 1017.41 1017.96 1018.42 1018.65 1019.09 1019.40 1019.77 1020.17 1020.64 1021.15 1021.29 1021.66 1021.98 1022.20 1022.31 1022.43 1022.27 1022.05 1022.19 1022.05 1022.02 1022.13 1022.37
1013.37 1014.43 1013.92 1015.30 1015.62 1016.27 1016.84 1016.81 1017.10 1017.90 1018.48 1019.06 1019.27 1019.53 1019.85 1020.20 1020.59 1021.11 1021.48 1021.65 1021.98 1022.19 1022.43 1022.61 1022.77 1022.60 1022.49 1022.69 1022.46 1022.30 1022.22 1022.85
1013.15 1014.57 1015.24 1015.61 1016.71 1016.59 1016.83 1017.16 1017.46 1018.43 1018.78 1019.30 1019.54 1019.84 1020.15 1020.40 1021.14 1021.54 1021.89 1021.93 1022.26 1022.46 1022.47 1022.60 1022.61 1022.63 1022.63 1022.88 1022.70 1022.34 1022.64 1023.46
1014.69 1015.17 1015.97 1016.18 1016.60 1016.95 1017.00 1016.85 1017.74 1018.69 1018.94 1019.20 1019.62 1019.96 1020.54 1021.13 1021.71 1021.85 1022.20 1022.47 1022.51 1022.57 1022.53 1022.77 1022.95 1022.97 1022.78 1022.91 1022.92 1022.76 1023.12 1023.93
1015.37 1015.75 1016.19 1016.53 1016.77 1017.19 1017.14 1017.74 1017.97 1018.28 1019.29 1019.21 1019.51 1020.33 1020.79 1021.49 1021.94 1022.27 1022.62 1022.79 1022.54 1022.65 1023.01 1023.11 1022.94 1022.81 1023.14 1023.22 1023.32 1023.30 1023.49 1023.94
1016.04 1016.29 1016.46 1016.93 1017.02 1017.13 1017.58 1017.96 1018.08 1019.02 1019.08 1019.46 1019.87 1020.55 1020.98 1021.56 1021.95 1022.22 1022.33 1022.58 1022.60 1022.49 1022.81 1022.91 1023.04 1023.20 1023.21 1023.60 1023.60 1023.73 1023.84 1024.43
1016.69 1016.80 1016.89 1017.13 1017.47 1017.85 1018.15 1018.37 1019.25 1018.99 1019.21 1019.77 1020.06 1020.49 1020.92 1021.48 1021.70 1021.89 1021.95 1022.14 1022.25 1022.52 1022.84 1023.05 1023.24 1023.46 1023.55 1023.63 1023.68 1023.90 1023.99 1024.38
1017.01 1017.26 1017.32 1017.72 1018.42 1018.44 1019.13 1019.36 1019.92 1019.45 1019.34 1019.99 1020.28 1020.62 1020.91 1021.15 1021.26 1021.44 1021.67 1021.88 1022.09 1022.37 1022.78 1023.03 1023.28 1023.35 1023.72 1023.98 1023.99 1024.10 1024.41 1024.51
1017.50 1017.92 1018.48 1018.59 1019.30 1019.37 1019.98 1019.71 1020.05 1019.85 1020.16 1020.64 1020.70 1020.49 1020.66 1020.85 1021.07 1021.32 1021.52 1021.79 1022.02 1022.37 1022.59 1022.79 1023.24 1023.34 1023.68 1024.10 1024.36 1024.16 1024.59 1024.69
1017.80 1017.95 1018.48 1019.27 1019.85 1019.84 1019.98 1020.42 1020.68 1020.53 1020.32 1020.17 1020.18 1020.19 1020.52 1020.80 1021.03 1021.24 1021.39 1021.79 1022.19 1022.69 1022.93 1023.05 1023.22 1023.42 1023.74 1024.11 1024.27 1024.13 1024.68 1024.72
1017.81 1018.44 1018.38 1018.96 1019.72 1020.20 1020.41 1020.23 1019.86 1019.71 1019.79 1019.71 1019.77 1020.17 1020.46 1020.59 1020.81 1021.15 1021.37 1021.99 1022.18 1022.54 1022.81 1022.78 1023.14 1023.50 1023.83 1023.92 1024.02 1024.30 1024.59 1024.41
1017.38 1018.21 1018.71 1018.84 1019.33 1019.78 1019.28 1018.68 1019.06 1019.24 1019.11 1019.30 1019.63 1019.87 1020.00 1020.46 1020.83 1020.91 1021.39 1021.90 1022.20 1022.40 1022.76 1022.76 1023.24 1023.53 1023.69 1023.55 1023.96 1024.20 1024.41 1024.57
1016.86 1017.80 1018.40 1018.73 1018.76 1018.38 1018.24 1018.43 1018.58 1018.70 1018.87 1019.12 1019.32 1019.55 1019.84 1020.38 1020.51 1020.80 1021.45 1021.79 1021.91 1022.32 1022.61 1023.07 1023.47 1023.68 1024.08 1023.89 1023.75 1024.05 1024.42 1024.41
1016.08 1016.57 1016.99 1017.34 1017.61 1017.78 1017.77 1017.84 1018.04 1018.36 1018.60 1018.82 1018.97 1019.41 1019.56 1020.02 1020.47 1020.93 1021.19 1021.51 1021.69 1022.18 1022.44 1023.28 1023.37 1023.49 1024.09 1024.10 1024.06 1024.65 1024.42 1024.28
1015.39 1015.80 1016.21 1016.56 1016.76 1016.82 1016.82 1017.20 1017.48 1017.84 1018.10 1018.44 1018.73 1018.91 1019.31 1019.44 1019.99 1020.27 1020.73 1021.16 1021.56 1021.89 1022.30 1022.93 1023.25 1023.44 1023.73 1024.12 1024.18 1024.35 1024.17 1024.02
1014.48 1014.82 1015.08 1015.41 1015.70 1015.83 1016.01 1016.45 1016.74 1016.77 1017.17 1017.79 1018.13 1018.29 1018.81 1019.10 1019.49 1020.06 1020.38 1020.98 1021.30 1021.62 1022.02 1022.56 1023.05 1023.37 1023.69 1023.69 1024.03 1024.48 1024.74 1025.01
1013.07 1013.61 1013.83 1014.46 1015.07 1015.28 1015.49 1015.77 1016.05 1016.41 1016.72 1017.16 1017.64 1017.98 1018.37 1019.14 1019.41 1019.90 1020.33 1020.57 1020.77 1021.24 1021.81 1022.30 1022.88 1023.35 1023.52 1023.60 1023.90 1024.09 1024.47 1025.10
1011.95 1012.43 1012.72 1013.33 1014.08 1014.76 1015.21 1015.68 1015.72 1015.96 1016.93 1017.48 1017.41 1017.94 1018.54 1018.89 1019.35 1019.88 1020.23 1020.68 1020.94 1021.39 1021.57 1022.15 1022.87 1023.31 1023.27 1023.49 1023.40 1023.73 1024.18 1024.37
1010.45 1011.21 1011.66 1012.12 1013.02 1013.72 1014.03 1014.28 1015.19 1015.68 1015.89 1016.85 1017.94 1017.85 1018.26 1018.70 1019.17 1019.68 1020.25 1020.62 1021.00 1021.34 1021.68 1022.22 1022.71 1023.11 1023.28 1023.25 1023.17 1023.46 1023.66 1023.94
1009.08 1009.86 1010.57 1011.19 1011.77 1012.63 1012.81 1012.90 1013.80 1014.89 1015.43 1016.00 1016.86 1017.17 1017.60 1018.10 1018.66 1019.35 1019.88 1020.32 1020.88 1021.05 1021.47 1022.02 1022.66 1023.05 1023.20 1023.15 1023.28 1023.40 1023.48 1023.75
Thickness
5667 5657 5656 5656 5660 5652 5652 5653 5649 5647 5643 5641 5642 5639 5638 5638 5636 5632 5628 5629 5627 5625 5625 5627 5627 5630 5632 5630 5631 5631 5631 5631
5657 5652 5650 5646 5646 5644 5642 5644 5643 5638 5634 5631 5632 5631 5631 5629 5629 5624 5622 5622 5621 5621 5622 5623 5622 5624 5626 5625 5628 5628 5628 5622
5645 5641 5637 5635 5631 5633 5637 5634 5635 5630 5628 5627 5626 5624 5624 5621 5619 5617 5616 5617 5616 5618 5621 5621 5622 5622 5623 5620 5623 5626 5623 5616
5636 5633 5629 5628 5624 5625 5627 5633 5630 5620 5622 5621 5621 5618 5614 5611 5607 5609 5609 5610 5612 5614 5618 5618 5618 5618 5621 5619 5619 5621 5619 5611
5632 5629 5624 5624 5623 5622 5624 5621 5622 5619 5615 5617 5613 5609 5607 5602 5599 5599 5599 5601 5608 5611 5611 5612 5614 5616 5615 5615 5613 5613 5612 5607
5623 5621 5622 5620 5620 5621 5618 5617 5617 5610 5612 5610 5608 5602 5599 5597 5596 5596 5599 5601 5606 5610 5610 5610 5610 5610 5612 5607 5608 5606 5603 5598
5613 5614 5616 5616 5613 5610 5610 5608 5600 5605 5606 5601 5599 5597 5596 5593 5597 5597 5602 5603 5606 5607 5606 5606 5606 5605 5605 5604 5601 5598 5594 5591
5603 5605 5607 5606 5599 5599 5599 5600 5592 5597 5601 5595 5593 5592 5594 5597 5599 5601 5603 5603 5604 5605 5604 5604 5602 5603 5600 5595 5594 5591 5586 5585
5595 5594 5590 5591 5587 5590 5589 5592 5588 5590 5588 5586 5589 5594 5595 5598 5601 5602 5603 5601 5601 5602 5602 5602 5599 5598 5595 5588 5585 5587 5581 5578
5587 5588 5586 5582 5581 5583 5584 5582 5577 5579 5583 5588 5592 5594 5596 5599 5601 5600 5600 5600 5599 5597 5595 5597 5596 5594 5590 5585 5584 5583 5575 5572
5584 5579 5581 5582 5579 5576 5575 5576 5581 5586 5591 5595 5597 5596 5598 5598 5599 5598 5598 5595 5597 5593 5592 5595 5591 5587 5585 5584 5580 5574 5570 5567
5592 5586 5581 5582 5582 5578 5587 5594 5593 5596 5600 5596 5599 5599 5601 5598 5596 5599 5596 5594 5592 5592 5588 5590 5585 5583 5581 5582 5576 5570 5564 5562
5600 5591 5588 5590 5591 5594 5598 5599 5599 5602 5597 5601 5602 5602 5601 5596 5598 5597 5592 5591 5591 5586 5586 5582 5578 5576 5570 5571 5570 5565 5560 5557
5610 5608 5607 5604 5600 5601 5602 5603 5602 5602 5602 5603 5603 5600 5600 5597 5595 5595 5592 5592 5590 5585 5584 5575 5573 5572 5564 5561 5556 5550 5550 5548
5616 5615 5613 5611 5612 5612 5613 5611 5608 5606 5606 5605 5602 5603 5599 5600 5596 5597 5594 5591 5587 5584 5580 5572 5567 5565 5560 5552 5546 5542 5539 5539
5623 5622 5621 5621 5620 5620 5619 5615 5614 5618 5616 5610 5607 5606 5601 5602 5599 5595 5594 5586 5584 5580 5574 5569 5562 5556 5552 5549 5542 5533 5523 5515
5634 5631 5632 5627 5623 5622 5620 5620 5619 5618 5617 5614 5610 5606 5604 5598 5596 5592 5588 5585 5580 5577 5568 5563 5555 5548 5544 5541 5534 5526 5517 5504
5642 5640 5639 5636 5631 5625 5623 5618 5621 5619 5609 5603 5606 5603 5599 5595 5591 5586 5582 5576 5573 5567 5563 5557 5547 5540 5536 5530 5526 5517 5506 5499
5653 5648 5645 5644 5638 5631 5629 5630 5619 5614 5608 5602 5593 5598 5595 5593 5586 5582 5576 5571 5565 5561 5556 5549 5541 5533 5527 5523 5518 5510 5501 5492
5660 5655 5649 5646 5642 5638 5638 5635 5628 5617 5612 5606 5599 5598 5598 5590 5585 5579 5573 5567 5559 5557 5550 5542 5533 5525 5519 5514 5506 5498 5491 5483